Regional Weather Roundup
Issued by NWS Grand Forks, ND

Home | Current Version | Previous Version | Graphics & Text | Print | Product List | Glossary On
Versions: 1 2 3 4 5 6 7 8 9 10 11 12 13 14 15 16 17 18 19 20 21 22 23 24 25 26 27 28 29 30 31 32 33 34 35 36 37 38 39 40 41 42 43 44 45 46 47 48 49 50
000
ASUS43 KFGF 041131
RWRFGF
PRAIRIE TO PINES  WEATHER ROUNDUP
NATIONAL WEATHER SERVICE EASTERN NORTH DAKOTA/GRAND FORKS ND
600 AM CDT WED MAY 04 2016

 **SATELLITE DATA USED TO AUGMENT SKY COVER AT AUTOMATED STATIONS**
 *****  WEATHER ACROSS EASTERN NORTH DAKOTA  *****

CITY           SKY/WX    TMP DP  RH WIND       PRES   REMARKS
GRAND FORKS    CLEAR     35  30  82 NW9       30.06R
GRAND FRKS AFB CLEAR     34  30  86 N7        30.06S
DEVILS LAKE    CLEAR     36  34  92 CALM      30.10R
FARGO          CLEAR     35  27  72 N7        30.05R
WAHPETON ARPT  SUNNY     37  28  70 NW6       30.04S
$$

 ***** WEATHER ACROSS CENTRAL AND WESTERN NORTH DAKOTA  *****

CITY           SKY/WX    TMP DP  RH WIND       PRES   REMARKS
BISMARCK       CLEAR     36  32  85 CALM      30.11S
MINOT          CLOUDY    45  29  53 CALM      30.07F
JAMESTOWN      CLEAR     34  29  82 NW7       30.08S
MINOT AFB      CLOUDY    42  31  64 S6        30.07S
GARRISON         N/A     42  34  73 CALM      30.09S
WILLISTON      CLEAR     46  40  79 S3        30.06F
DICKINSON      CLEAR     43  33  68 S10       30.08F
HETTINGER      CLEAR     34  31  88 CALM      30.13S
$$

 *****  OTHER AIRPORT OBSERVATIONS IN OUR AREA  *****

CITY           SKY/WX    TMP DP  RH WIND       PRES   REMARKS
WALHALLA       FAIR      32  32 100 CALM      30.09R
GRAFTON AIRPOR FAIR      37  34  87 NW8       30.09R
VALLEY CITY AR FAIR      34  34 100 NW9       30.09S
CANDO          FAIR      32  25  74 N3        30.12R
CAVALIER APRT  FAIR      36  32  87 NW5       30.09R
GWINNER        FAIR      39  32  75 NW10      30.06S
SHEYENNE NWR     N/A     37  29  73 N6        29.95S
ROLLA          FAIR      32  27  80 W6        30.10S
 ***** THE ABOVE OBSERVATIONS ARE NON NWS ARE NOT QUALITY
       CONTROLLED AND MAY MIS-REPORT RAIN FOR SNOW...
$$

  *****  WEATHER ACROSS NORTHERN MINNESOTA  *****

CITY           SKY/WX    TMP DP  RH WIND       PRES   REMARKS
FLAG ISLAND    CLEAR     43  34  70 N10       30.04R
WARROAD        CLEAR     36  32  87 NW6       30.05R
ROSEAU         CLEAR     36  32  87 NW3       30.06R
HALLOCK        CLEAR     34  30  86 N6        30.07R
THF RVR FALLS  CLEAR     37  30  75 N8        30.05S
BAUDETTE       CLEAR     39  34  82 N6        30.02R
WASKISH        PTCLDY    39  36  87 N6        30.02R
CROOKSTON      CLEAR     34  28  80 N8        30.07R
STEPHEN NDAWN    N/A     30  27  86 NW3         N/A
GREENBUSH NDAW   N/A     34  32  93 W3          N/A
$$
  *****  WEATHER ACROSS CENTRAL AND WEST MINNESOTA  *****

CITY           SKY/WX    TMP DP  RH WIND       PRES   REMARKS
FOSSTON        CLEAR     34  30  86 CALM      30.05R
BEMIDJI        CLEAR     33  32  97 NW3       30.02R
PARK RAPIDS    CLEAR     37  32  82 N7        30.00R
ELBOW LAKE     FAIR      40  36  84 W5        30.03R
WADENA         CLEAR     36  30  80 NW5       30.00S
DETROIT LAKES  CLEAR     37  34  87 NW6       30.03R
MOORHEAD       CLEAR     37  28  70 N7        30.06R
FERGUS FALLS   CLEAR     41  36  81 NE3       30.01S
MORRIS MN      CLEAR     36  30  80 NW8       30.02R
STAPLES        CLEAR     36  30  80 NW5       30.00R
$$
  *****  WEATHER ELSEWHERE ACROSS MINNESOTA  *****

CITY           SKY/WX    TMP DP  RH WIND       PRES   REMARKS
DULUTH         CLEAR     39  31  72 N8        29.92R
INTRNTL FALLS  CLEAR     34  30  85 NW7       29.99R
ELY            CLEAR     36  32  87 NW5       29.93R
CLOQUET        CLEAR     39  30  70 NW6       29.94R
WHEATON        CLEAR     39  34  81 W3        30.06R
BRAINERD       CLEAR     36  31  82 NW5       29.98R
HIBBING        CLEAR     35  30  82 N8        29.94R
ALEXANDRIA     CLEAR     42  33  70 NW6       30.01R
SAINT CLOUD    CLEAR     39  32  76 N5        29.97R
MINNEAPOLIS    CLEAR     46  33  60 N7        29.94R
$$

  *****  WEATHER ACROSS SOUTH DAKOTA  *****

CITY           SKY/WX    TMP DP  RH WIND       PRES   REMARKS
SIOUX FALLS    CLEAR     43  33  68 N9        30.02R
BROOKINGS      CLEAR     38  31  76 NW6       30.02R
WATERTOWN      CLEAR     38  30  73 N8        30.03R
HURON          CLEAR     36  33  89 NW8       30.07R
SISSETON         N/A     40  31  70 NW9       30.04R
ABERDEEN       CLEAR     38  31  76 NW9       30.08R
MITCHELL       CLEAR     40  35  83 NW8       30.06R
PIERRE         CLEAR     38  31  76 NW6       30.10S
MOBRIDGE       CLEAR     38  32  79 N3        30.09R
RAPID CITY     CLEAR     48  36  63 NW10      30.13S
$$

  *****  SOME WEATHER IN NEARBY STATES *****

CITY           SKY/WX    TMP DP  RH WIND       PRES   REMARKS
GLASGOW MT     CLEAR     50  40  68 E9        30.02F
GREAT FALLS MT CLEAR     46  36  68 S8        30.01S
CHEYENNE WY    CLEAR     40  32  73 W12       30.25F
SCOTTSBLUFF NE CLEAR     43  38  82 NW10      30.18S
OMAHA NE       CLEAR     48  37  65 N9        29.94R
DES MOINES IA  CLEAR     51  35  54 N9        29.86R
DAVENPORT IA   PTCLDY    45  44  97 N10       29.76R FOG
CHICAGO IL     MOCLDY    46  40  79 N17       29.69R
EAU CLAIRE WI  CLEAR     41  33  73 NW8       29.87R
LA CROSSE WI   CLEAR     44  37  76 N8        29.86R
$$

  *****  SOME NATIONAL WEATHER *****

CITY           SKY/WX    TMP DP  RH WIND       PRES   REMARKS
LA GUARDIA NY  CLOUDY    50  46  87 NE7       29.81S
RALEIGH NC     MOCLDY    57  55  93 CALM      29.72R
ATLANTA GA     CLEAR     54  49  83 NW7       29.83R
NEW ORLEANS LA PTCLDY    64  49  57 N13       29.94S
OKLAHOMA CITY  CLEAR     49  46  90 NW7       30.03S
ALBUQUERQUE NM CLEAR     53  31  42 N9        30.28S
SALT LAKE CITY CLEAR     54  35  48 S10       30.13S
LOS ANGELES CA MOCLDY    57  54  89 N3        29.93F
BOISE ID       PTCLDY    61  34  36 SE7       29.97F
SEATTLE WA     CLOUDY    54  45  71 NE8       30.09F
$$

*** WEATHER ACROSS MANITOBA...SASKATCHEWAN AND ONTARIO ***
                ***ONTARIO***

CITY           SKY/WX    TMP DP  RH WIND       PRES   REMARKS
GERALDTON      CLOUDY    30  27  86 N14       29.86R WCI  20
THUNDER BAY    MOCLDY    37  28  70 N3        29.90R
SIOUX LOOKOUT  PTCLDY    28  25  86 N6        30.00R WCI  22
TORONTO        MOCLDY    45  37  76 E3        29.72S
BIG TROUT LK   CLOUDY    21  18  86 N7        30.06R WCI  13
PICKLE LAKE    MOCLDY    28  23  80 N8        29.98  WCI  20
DRYDEN         CLEAR     32  27  80 N6        29.99R
KENORA         CLEAR     34  28  80 N5        30.03R
$$
                *** MANITOBA***

CITY           SKY/WX    TMP DP  RH WIND       PRES   REMARKS
BRANDON        PTCLDY    30  25  80 NW5       30.09S
DAUPHIN        CLEAR     34  28  80 NW2       30.05S
ISLAND LAKE    CLEAR     27  25  93 CALM      30.09S
PILOT MOUND      N/A     30  27  86 W2          N/A
THE PAS        CLOUDY    43  32  65 S12       29.94F
THOMPSON       PTCLDY    34  23  64 SE5       30.00F
WINNIPEG       CLEAR     32  30  93 NW5       30.09R
LYNN LAKE      CLOUDY    41  25  52 CALM      29.85F
CHURCHILL      CLOUDY    25  21  86 SW10      30.00F WCI  15
GILLAM         PTCLDY    23  19  86 S6        30.07R WCI  16
$$
                ***SASKATCHEWAN***

CITY           SKY/WX    TMP DP  RH WIND       PRES   REMARKS
ESTEVAN        PTCLDY    39  32  75 SE5       30.04F
KINDERSLEY     PTCLDY    54  41  62 S13       29.88F
LLOYDMINSTER   CLEAR     54  39  58 S10       29.79F
PRINCE ALBERT  PTCLDY    43  37  81 E2        29.86S
REGINA         PTCLDY    45  34  65 SE10      29.99F
YORKTON        CLEAR     46  32  57 S10       29.99F
N. BATTLEFORD  CLEAR     59  39  47 S10       29.86F
LA RONGE       PTCLDY    41  34  75 NE3       29.78F
SASKATOON      PTCLDY    52  39  62 S9        29.91S
SWIFT CURRENT  CLEAR     54  39  58 S15       29.95F
$$
NOTE: THESE ARE AUTOMATED STATIONS WITH LIMITED QUALITY CONTROL
      "FAIR" INDICATES FEW OR NO CLOUDS BELOW 12,000 FEET WITH NO
      SIGNIFICANT WEATHER AND/OR OBSTRUCTIONS TO VISIBILITY.
      SKY/WX - SKY CONDITION AND SIGNIFICANT WEATHER.
      TMP - AIR TEMPERATURE.    DP   - DEWPOINT TEMPERATURE.
      RH  - RELATIVE HUMIDITY.  PRES - PRESSURE.
      HX  - HEAT INDEX.         WCI  - WIND CHILL INDEX.
$




USA.gov is the U.S. government's official web portal to all federal, state and local government web resources and services.